This is the latest recevied weather packets stored in our database for station/object W6MAF. If no packets are shown the sender has not sent any weather packets the latest 10 day(s).
| Time | Temp. | Humidity | Pressure | Rain* | Wind** | Luminosity | Snow |
|---|---|---|---|---|---|---|---|
| 1777897173 | 6.11° C | 90% | - | 0 mm | 6.26 m/s, 205° | - | - |
| 1777896875 | 6.11° C | 90% | - | 0 mm | 4.47 m/s, 207° | - | - |
| 1777896574 | 6.11° C | 90% | - | 0 mm | 6.71 m/s, 215° | - | - |
| 1777896277 | 6.11° C | 90% | - | 0 mm | 6.71 m/s, 212° | - | - |
| 1777895979 | 6.11° C | 90% | - | 0 mm | 5.81 m/s, 169° | - | - |
| 1777895681 | 6.11° C | 90% | - | 0 mm | 5.81 m/s, 201° | - | - |
| 1777895384 | 6.11° C | 90% | - | 0 mm | 7.15 m/s, 207° | - | - |
| 1777895086 | 6.11° C | 90% | - | 0 mm | 5.81 m/s, 217° | - | - |
| 1777894785 | 6.11° C | 90% | - | 0 mm | 6.26 m/s, 217° | - | - |
| 1777894488 | 6.11° C | 90% | - | 0 mm | 7.15 m/s, 211° | - | - |
| 1777893892 | 6.11° C | 91% | - | 0 mm | 5.36 m/s, 226° | - | - |
| 1777893594 | 6.11° C | 91% | - | 0 mm | 4.92 m/s, 190° | - | - |
| 1777893378 | 6.11° C | 91% | - | 0 mm | 7.15 m/s, 218° | - | - |
| 1777893297 | 6.11° C | 91% | - | 0 mm | 7.15 m/s, 218° | - | - |
| 1777893056 | 6.11° C | 91% | - | 0 mm | 4.92 m/s, 232° | - | - |
| 1777892996 | 6.11° C | 91% | - | 0 mm | 4.92 m/s, 232° | - | - |
| 1777892698 | 6.11° C | 91% | - | 0 mm | 5.36 m/s, 222° | - | - |
| 1777892462 | 6.11° C | 91% | - | 0 mm | 5.81 m/s, 205° | - | - |
| 1777892401 | 6.11° C | 91% | - | 0 mm | 5.81 m/s, 205° | - | - |
| 1777892139 | 6.11° C | 91% | - | 0 mm | 4.92 m/s, 163° | - | - |
| 1777892104 | 6.11° C | 91% | - | 0 mm | 4.92 m/s, 163° | - | - |
| 1777891850 | 6.11° C | 91% | - | 0 mm | 7.15 m/s, 174° | - | - |
| 1777891805 | 6.11° C | 91% | - | 0 mm | 7.15 m/s, 174° | - | - |
| 1777891508 | 6.11° C | 90% | - | 0 mm | 5.36 m/s, 201° | - | - |
| 1777891207 | 6.11° C | 90% | - | 0 mm | 5.36 m/s, 211° | - | - |
* Rain latest hour (hover to see other rain measurements)
** Current wind speed in m/s (hover to see current wind gust speed)